Back to catalog

YAOGAN-43 02E

AliveMilitaryVLEO
NORAD 60949·PAYLOAD·🇨🇳 China

Launched Sep 3, 2024 from Xichang Satellite Launch Center

Loading…

Next Passes (next 24 hours)

TLE

FreshSource: Space-Track

Epoch: Sep 14, 2026, 14:25 UTC

1 60949U 24156E   26257.60084950  .00010411  00000-0  43242-3 0  9995
2 60949  34.9985 355.8381 0005126  48.0757 312.0394 15.23045078113086

Track YAOGAN-43 02E in real time with AllMySat

Download on the App Store